Location: Northam
(31.6525°S, 116.6655°E)
Time: 04:10:42
(UTC+08:00)

deb Explorer IX - Visible Passes

Search period start: 14 June 2021 00:00
Search period end: 24 June 2021 00:00
Orbit: 542 x 1097 km, 38.8° (Epoch: 12 June)

Date Brightness Start Highest point End Pass type
(mag) Time Alt. Az. Time Alt. Az. Time Alt. Az.
14 Jun ? 18:05:13 10° NNW 18:11:11 28° NE 18:16:08 14° E visible
14 Jun ? 19:50:49 10° WNW 19:57:23 72° NW 19:57:23 72° NW visible
15 Jun ? 17:41:14 10° NNW 17:47:09 28° NE 17:53:09 10° E visible
15 Jun ? 19:26:48 10° WNW 19:34:08 83° NNE 19:34:58 72° E visible
15 Jun ? 21:14:50 10° W 21:16:13 16° W 21:16:13 16° W visible
16 Jun ? 19:02:47 10° WNW 19:10:05 83° NNE 19:12:29 47° ESE visible
16 Jun ? 20:50:46 10° W 20:53:44 25° WSW 20:53:44 25° WSW visible
17 Jun ? 18:38:46 10° WNW 18:46:02 83° NNE 18:49:58 30° ESE visible
17 Jun ? 20:26:42 10° W 20:31:12 36° WSW 20:31:12 36° WSW visible
18 Jun ? 18:14:47 10° WNW 18:21:59 83° NNE 18:27:24 20° ESE visible
18 Jun ? 20:02:39 10° W 20:08:39 48° SW 20:08:39 48° SW visible
19 Jun ? 17:50:49 10° WNW 17:57:55 83° NNE 18:04:48 12° ESE visible
19 Jun ? 19:38:37 10° W 19:45:46 53° S 19:46:03 53° S visible
19 Jun ? 21:26:57 10° WSW 21:27:18 11° WSW 21:27:18 11° WSW visible
20 Jun ? 19:14:35 10° W 19:21:42 53° S 19:23:26 44° SSE visible
20 Jun ? 21:02:52 10° WSW 21:04:41 18° WSW 21:04:41 18° WSW visible
21 Jun ? 18:50:35 10° W 18:57:38 53° S 19:00:48 33° SE visible
21 Jun ? 20:38:48 10° WSW 20:42:02 27° SW 20:42:02 27° SW visible
22 Jun ? 18:26:36 10° W 18:33:33 53° S 18:38:11 23° ESE visible
22 Jun ? 20:14:44 10° WSW 20:19:25 37° SW 20:19:25 37° SW visible
23 Jun ? 18:02:38 10° W 18:09:30 53° S 18:15:32 15° ESE visible
23 Jun ? 19:50:41 10° WSW 19:56:47 48° SSW 19:56:47 48° SSW visible
